MST,Max TemperatureF,Mean TemperatureF,Min TemperatureF,Max Dew PointF,MeanDew PointF,Min DewpointF,Max Humidity, Mean Humidity, Min Humidity, Max Sea Level PressureIn, Mean Sea Level PressureIn, Min Sea Level PressureIn, Max VisibilityMiles, Mean VisibilityMiles, Min VisibilityMiles, Max Wind SpeedMPH, Mean Wind SpeedMPH, Max Gust SpeedMPH,PrecipitationIn, CloudCover, Events, WindDirDegrees
2013-2-1,37,21,5,34,20,1,100,85,70,30.24,30.10,30.00,,,,29,16,37,0.05,,,273
2013-2-2,40,35,29,30,27,25,100,82,64,30.25,30.15,30.03,,,,46,18,54,0.01,,,297
2013-2-3,50,36,22,29,25,21,100,73,45,30.18,29.95,29.80,,,,21,12,25,0.00,,,284
2013-2-4,43,33,23,31,27,22,100,79,57,29.99,29.87,29.78,,,,23,10,29,0.00,,,246
2013-2-5,40,33,26,29,26,24,85,70,54,30.05,29.95,29.83,,,,23,13,31,0.00,,,164
2013-2-6,49,37,25,30,27,24,92,67,42,30.07,29.90,29.72,,,,22,11,26,0.00,,,291
2013-2-7,43,31,19,30,25,17,100,80,60,30.20,30.15,30.01,,,,23,10,28,0.00,,,146
2013-2-8,36,29,22,30,25,22,100,88,75,30.09,29.98,29.92,,,,25,11,35,0.00,,,86
2013-2-9,32,28,24,27,25,23,100,89,78,29.94,29.87,29.77,,,,21,12,25,0.00,,,18
2013-2-10,31,26,20,27,21,13,92,78,63,30.07,29.85,29.73,,,,40,25,52,0.00,,,337
2013-2-11,34,26,18,16,13,12,73,58,43,30.16,30.08,29.99,,,,33,16,39,0.00,,,282
2013-2-12,47,35,22,22,18,12,71,54,37,30.01,29.97,29.88,,,,24,13,31,0.00,,,282
2013-2-13,50,40,30,28,25,21,78,60,42,29.91,29.80,29.65,,,,37,20,46,0.00,,,293
2013-2-14,33,25,17,22,18,13,88,69,49,30.38,30.20,29.92,,,,43,19,51,0.00,,,316
2013-2-15,32,23,14,16,12,10,88,64,39,30.45,30.37,30.15,,,,21,12,30,0.00,,,307
2013-2-16,52,39,25,29,26,19,85,62,38,30.12,29.97,29.82,,,,22,13,26,0.01,,,256
2013-2-17,56,42,27,30,27,25,92,62,32,29.80,29.66,29.50,,,,33,17,40,0.00,,,274
2013-2-18,33,20,7,26,12,5,83,67,50,30.30,30.07,29.74,,,,39,23,51,0.00,,,333
2013-2-19,17,7,-3,1,-3,-7,91,67,42,30.44,30.37,30.28,,,,28,15,33,0.00,,,91
2013-2-20,23,11,-1,15,3,-5,84,63,41,30.28,30.16,30.09,,,,28,22,35,0.00,,,130
2013-2-21,21,17,13,17,14,11,96,90,84,30.18,30.14,30.10,,,,22,12,28,0.11,,,130
2013-2-22,30,20,9,23,15,7,100,87,74,30.11,30.01,29.86,,,,38,9,44,0.00,,,182
2013-2-23,40,28,15,27,22,13,92,73,54,29.88,29.80,29.73,,,,18,8,39,0.00,,,158
2013-2-24,37,29,21,30,26,17,100,82,64,30.18,30.06,29.90,,,,23,11,28,0.01,,,318
2013-2-25,46,31,15,25,18,11,88,56,23,30.17,30.03,29.89,,,,20,12,25,0.00,,,189
2013-2-26,46,32,17,27,21,15,92,63,33,30.16,30.00,29.88,,,,26,10,31,0.00,,,4
2013-2-27,31,28,24,24,22,20,84,77,69,30.32,30.27,30.16,,,,23,15,29,0.00,,,336
2013-2-28,39,31,23,23,21,20,88,66,44,30.34,30.30,30.18,,,,18,5,22,0.00,,,244